Theta_e
343 346 349 352 354 355 354 355 354 354 353 353 352 352 351 350 350 350 350 350 352 353 353 352 351 352 351 351 352 351 351 351 350 349 349 349 349 348 348 348 348 348 348 348 346 346 346 345 344 344 344 344 345 346 346 347 348 348 347 346 346 346 347 348 349 348 349 349 351 352 351 352 353 352 352 351 350 349 349 348 347 346 346 348 351
343 347 349 351 353 353 354 353 354 354 353 353 352 351 350 350 350 350 350 350 352 352 352 352 351 351 351 351 351 351 352 351 351 351 350 350 348 348 347 347 346 347 348 347 346 346 345 344 343 343 342 341 341 342 344 344 344 345 345 346 346 346 345 346 347 347 347 348 347 348 348 349 349 350 351 349 347 349 347 347 347 344 344 348 349
345 347 349 351 352 353 353 353 352 353 353 353 352 350 350 349 350 349 349 349 349 349 350 349 350 350 350 350 350 349 350 350 351 350 349 349 348 347 347 347 347 347 347 347 348 346 345 343 343 341 341 339 338 339 341 343 342 343 344 344 345 345 345 346 346 346 346 346 348 346 345 347 348 348 348 348 348 348 346 346 346 345 344 349 347
344 346 349 350 349 352 353 353 353 353 352 352 351 350 349 349 349 349 349 349 349 349 349 349 348 348 350 350 350 350 349 350 350 349 349 349 348 347 347 347 347 347 347 347 347 346 345 343 341 340 338 337 336 337 338 339 341 342 343 343 344 344 345 345 346 345 344 345 346 344 344 341 343 347 348 348 348 347 345 345 345 345 346 346 348
345 347 348 349 350 350 352 352 353 352 352 351 351 350 350 349 349 348 348 349 349 348 348 348 347 348 348 349 349 349 349 349 350 349 349 348 348 346 346 346 346 346 346 347 347 345 344 342 341 339 337 335 335 335 336 338 340 341 342 343 342 342 344 345 346 346 345 345 344 342 340 341 341 346 347 347 348 346 344 343 343 344 344 344 345
345 347 349 349 349 349 350 353 352 352 352 351 351 350 350 349 349 348 349 348 348 348 347 347 347 347 348 348 348 349 349 349 349 349 348 348 348 347 346 346 346 346 346 347 346 344 343 341 340 338 336 334 333 334 335 337 339 340 341 343 341 341 342 343 344 344 343 343 342 340 340 340 341 343 347 346 345 343 342 342 342 343 343 343 344
346 348 349 349 349 347 347 352 351 352 352 352 351 350 350 349 348 348 348 348 348 347 347 347 347 347 348 348 348 348 348 348 348 347 347 347 348 347 346 345 346 345 346 346 345 343 342 340 339 337 335 332 333 335 336 337 337 339 340 340 340 340 342 343 341 343 343 338 338 339 339 340 340 340 345 344 343 341 341 341 341 341 342 342 343
345 347 349 349 348 346 347 351 351 351 351 351 351 351 350 349 349 349 349 348 348 347 347 347 347 347 347 347 346 347 348 348 348 348 347 346 346 347 345 345 345 346 346 346 344 342 341 339 337 336 334 331 333 335 336 336 337 337 337 337 339 340 342 340 341 341 341 335 335 338 339 339 340 340 344 344 343 341 340 340 340 340 340 340 340
343 345 347 348 348 345 347 350 352 351 351 350 351 351 350 349 350 350 348 348 347 346 346 346 346 347 347 347 347 347 347 347 348 348 347 346 345 344 344 344 344 344 346 345 343 342 340 337 335 335 332 331 333 335 335 336 336 336 337 339 341 341 341 339 339 338 337 334 337 338 338 339 338 339 343 343 342 341 339 338 338 338 339 338 338
342 344 347 348 348 344 346 350 351 351 351 350 351 350 350 349 350 349 348 348 347 346 346 346 346 346 347 346 346 346 347 347 348 348 347 346 345 345 344 344 344 344 344 345 344 342 339 336 334 332 331 332 333 334 334 335 335 336 337 339 339 338 338 338 339 335 334 337 339 339 340 341 337 338 341 342 341 340 338 337 335 334 334 335 336
341 343 346 347 347 345 349 351 350 350 350 350 351 350 350 349 350 349 348 348 347 346 346 346 346 346 346 347 347 347 346 347 347 347 346 345 345 344 344 343 344 344 343 343 342 340 338 335 333 331 331 333 333 333 333 333 333 335 337 337 337 337 337 337 334 330 333 335 336 337 340 342 336 335 341 341 341 339 336 336 335 334 333 333 333
346 346 346 345 345 344 349 350 350 351 350 350 350 350 350 350 350 349 348 348 347 346 346 346 347 346 347 348 347 347 347 347 346 346 345 344 344 344 344 343 343 342 341 341 340 339 337 335 332 331 330 331 332 332 332 332 332 334 335 336 336 336 334 333 328 328 330 334 335 335 335 335 337 340 341 339 339 338 336 334 334 335 334 333 334
344 345 345 345 345 342 346 349 349 350 348 349 349 349 349 350 349 349 348 348 347 346 345 346 346 346 347 347 347 347 346 346 346 346 344 344 343 343 343 343 342 342 340 339 338 337 336 333 331 330 330 331 331 331 332 332 333 333 334 334 334 334 331 331 327 325 328 331 333 333 333 332 333 341 340 339 338 337 336 334 334 334 333 333 333
343 344 344 344 343 344 343 346 347 349 349 349 349 349 348 348 349 348 348 348 347 347 346 346 345 346 347 346 346 345 345 345 345 345 345 344 343 343 343 343 342 341 340 338 337 336 334 332 330 328 329 330 330 330 331 331 332 333 333 332 331 331 328 327 328 325 329 330 330 330 330 332 332 339 340 338 337 337 335 333 333 334 332 332 333
337 342 343 342 342 341 341 342 344 346 348 349 349 348 348 348 349 349 349 348 348 347 348 346 346 346 346 346 346 346 345 345 344 343 343 343 343 342 342 342 341 339 338 337 336 335 333 330 327 325 326 328 328 329 329 330 331 331 331 329 330 329 326 323 324 325 327 328 328 329 329 331 338 338 337 338 337 336 335 333 332 332 331 331 331
332 334 341 341 340 340 341 341 339 342 342 345 346 346 347 348 349 349 348 348 348 347 347 347 346 346 346 346 345 345 345 344 344 343 343 343 342 342 341 341 340 339 337 336 335 333 331 327 323 322 323 325 326 326 326 328 329 328 328 328 330 328 325 323 321 324 325 326 327 328 328 330 339 337 335 336 336 335 334 333 332 332 331 331 331
331 331 338 338 338 338 341 344 339 335 337 339 340 342 344 346 347 347 348 348 348 348 347 347 347 346 346 346 346 345 344 344 344 343 343 342 342 341 340 340 339 338 337 335 334 333 330 325 322 320 320 322 323 324 325 326 326 326 327 327 329 326 323 322 322 322 324 324 325 326 328 332 337 335 335 334 335 334 331 331 332 331 330 331 330
329 331 330 331 332 336 339 341 341 345 343 337 334 338 340 343 344 344 345 345 346 347 346 346 346 346 344 342 341 341 342 343 343 343 342 341 341 341 340 339 338 337 336 335 334 332 329 325 322 320 319 320 319 321 323 324 324 324 326 326 326 323 321 320 320 320 321 323 321 324 327 335 337 334 335 336 335 334 331 330 331 330 330 330 329
327 329 329 330 330 331 335 339 338 343 343 343 342 339 335 339 340 340 341 343 344 342 342 343 341 340 340 337 337 336 335 336 337 337 338 336 336 334 337 338 338 337 336 334 333 331 328 325 324 322 320 318 318 320 321 322 322 323 324 324 321 319 318 317 318 318 318 317 318 321 326 334 337 334 334 334 334 332 331 329 329 329 329 328 329
319 321 326 327 328 330 329 333 339 338 340 341 342 342 333 334 337 337 339 341 340 339 339 337 332 331 331 330 327 328 329 330 328 332 332 334 332 331 334 338 337 336 335 334 332 330 329 326 324 323 321 318 317 318 319 318 320 322 324 320 317 315 312 313 316 316 315 315 317 319 328 332 336 334 333 333 333 331 329 329 328 328 328 327 329
315 315 315 317 318 320 327 330 331 334 338 340 341 341 337 331 333 332 333 334 336 335 335 326 322 321 323 321 323 333 334 332 331 331 325 331 325 326 332 336 337 336 335 333 332 330 328 326 325 323 321 320 319 317 315 318 318 319 319 315 312 308 310 311 315 314 312 311 313 318 327 330 333 333 331 332 331 328 328 329 328 328 328 328 328
311 313 315 316 316 316 318 318 320 327 334 337 342 342 337 336 339 339 337 333 330 329 332 333 330 330 322 326 334 335 334 335 334 329 329 329 326 324 327 332 335 334 333 333 332 330 329 328 326 324 322 321 318 305 305 311 312 312 311 309 302 304 306 308 311 312 309 307 310 318 324 328 331 334 331 330 330 327 327 328 327 326 328 328 328
311 312 313 315 315 316 317 318 318 319 329 334 339 342 339 340 340 338 338 332 332 329 335 334 336 335 334 334 334 336 335 335 333 331 332 325 328 323 326 330 333 332 332 332 332 330 329 328 327 327 324 321 310 306 304 300 298 305 303 299 297 300 302 304 306 309 307 306 306 317 320 325 329 331 331 333 334 333 331 327 327 326 327 328 328
310 310 311 314 315 315 316 317 317 317 321 332 334 341 340 339 339 339 336 336 334 334 335 336 336 337 336 336 335 335 335 335 329 325 326 331 327 322 324 324 326 327 326 328 329 330 330 328 327 324 318 314 311 309 306 302 299 299 299 297 295 297 298 300 300 304 305 306 307 315 315 319 325 328 330 332 333 334 335 335 335 335 333 334 329
308 309 311 312 313 315 315 316 317 316 316 326 330 330 338 339 339 339 338 337 336 336 334 333 334 333 333 333 334 333 332 331 332 332 331 331 329 328 328 327 327 326 324 327 326 324 320 317 316 314 313 312 311 310 308 305 302 302 303 302 300 297 297 298 298 298 301 302 306 314 314 314 317 322 326 327 330 331 332 333 335 336 335 334 335
309 309 310 311 313 314 315 316 317 317 316 319 329 329 332 333 337 338 337 336 335 334 335 335 334 335 334 332 331 330 330 331 331 330 330 330 328 327 326 328 328 328 328 327 326 322 318 318 316 315 312 311 310 309 307 306 304 304 305 305 304 301 301 297 297 299 298 301 304 314 314 313 314 316 318 322 325 327 328 330 331 332 333 335 335
307 309 311 311 312 313 314 315 316 317 315 317 328 329 332 331 330 331 334 333 335 334 333 332 331 330 330 331 331 329 329 328 331 331 330 329 327 326 327 328 327 327 327 328 325 321 318 316 315 313 311 310 309 307 307 307 306 307 307 307 306 304 304 302 300 301 299 299 306 314 315 314 313 315 317 317 319 320 322 324 327 329 330 332 334
309 310 311 312 311 311 313 314 318 316 314 317 326 330 329 327 327 328 330 329 330 330 329 329 328 326 326 327 328 331 329 328 329 329 329 329 327 327 327 328 329 327 326 327 324 323 320 318 315 312 312 311 311 308 308 308 308 308 308 307 308 307 306 304 304 303 302 299 301 307 314 315 314 315 315 317 319 319 319 320 321 324 325 328 331
308 308 309 310 310 312 314 319 320 317 314 321 327 327 326 325 325 325 325 324 327 327 327 326 325 324 324 323 323 326 328 329 327 328 329 327 327 329 329 328 327 326 326 324 324 322 320 317 316 312 312 311 310 310 308 309 309 309 308 307 307 307 306 306 304 302 302 301 300 303 312 314 314 314 314 317 317 319 320 320 321 321 322 324 326
307 308 308 310 312 314 319 320 322 323 324 325 324 324 323 323 323 323 322 322 323 324 324 323 322 323 322 323 323 324 324 325 324 324 323 323 323 323 323 323 323 324 324 322 321 320 318 318 317 313 312 311 311 309 309 309 309 307 307 307 306 306 304 303 303 303 301 301 301 301 308 311 314 314 314 316 317 318 318 317 318 319 321 321 321
306 307 308 310 312 317 318 319 321 320 321 321 322 322 322 321 320 320 320 320 320 320 320 320 320 320 320 321 322 321 322 322 322 322 321 320 320 319 320 321 320 321 321 320 319 319 319 318 317 316 315 312 311 310 311 310 307 310 307 307 307 306 305 304 304 303 302 301 301 300 302 307 313 314 313 315 316 316 317 318 319 319 320 320 320
305 306 308 310 313 315 315 316 319 318 319 318 318 319 318 318 317 316 315 315 316 315 314 314 313 315 317 319 320 320 319 319 319 318 318 318 317 317 317 317 317 319 320 320 320 320 319 318 318 319 317 314 312 311 312 312 312 311 309 308 306 307 304 303 304 303 303 302 300 300 299 300 305 309 311 314 313 314 316 317 318 318 318 319 320
305 307 308 310 311 313 313 312 314 315 315 314 314 314 314 313 312 312 311 311 310 309 309 309 308 309 310 312 314 316 317 316 316 316 314 315 315 314 313 313 314 316 317 317 316 316 314 313 312 312 311 309 305 305 307 307 306 307 307 307 307 306 305 305 303 302 300 300 299 299 298 299 298 303 307 312 311 312 314 315 316 316 317 319 319
305 307 308 308 309 311 311 310 310 310 311 311 311 310 309 309 309 309 308 308 307 307 306 306 307 308 308 309 310 312 314 316 315 314 313 312 311 311 311 311 312 312 313 315 313 310 308 307 307 306 305 303 301 301 302 301 301 302 303 304 306 305 303 302 300 299 298 298 298 298 298 298 298 298 299 304 307 309 310 313 314 313 315 316 318
305 306 307 308 308 309 309 308 308 308 308 308 308 307 307 307 307 306 306 306 306 305 305 305 306 306 307 307 308 308 309 311 311 310 309 308 307 307 308 309 310 310 309 310 311 307 304 303 303 303 301 300 299 299 299 298 298 300 300 302 303 303 300 299 298 298 297 297 297 297 297 297 297 298 298 296 300 305 308 309 311 312 313 315 316
304 306 307 308 307 307 308 306 307 306 306 307 306 306 306 305 305 305 304 304 304 304 304 304 304 305 305 306 306 306 306 307 307 307 305 305 305 304 304 305 305 305 305 305 307 306 302 300 300 300 298 297 297 296 296 296 297 298 299 300 301 299 298 297 298 297 297 296 296 296 296 297 297 297 299 296 296 298 305 306 308 309 310 312 314
305 306 306 306 305 306 307 305 305 305 305 303 303 303 302 301 301 301 301 301 301 300 301 301 302 301 302 303 305 305 306 305 305 305 304 303 303 302 302 303 303 302 302 302 303 304 301 298 297 297 296 295 295 294 295 295 296 297 298 299 298 297 297 297 297 296 296 294 293 294 295 295 296 298 296 295 294 294 299 303 305 305 306 308 310
305 307 307 306 305 305 305 305 304 304 303 303 302 301 300 300 299 299 299 298 298 298 298 298 298 298 299 299 300 301 303 304 304 303 302 302 301 301 301 301 301 301 300 300 300 302 302 298 295 295 294 293 293 292 293 294 296 297 298 297 296 296 296 297 296 296 294 292 292 292 293 294 294 294 294 294 291 290 291 296 300 301 301 305 308
305 306 306 306 306 305 304 304 303 302 301 301 301 300 299 298 298 298 297 296 296 297 297 296 296 296 296 297 298 298 299 301 301 301 300 300 299 298 298 298 298 298 297 297 298 298 298 297 294 293 293 292 291 291 292 293 294 296 297 295 295 295 295 295 295 295 294 292 292 292 292 292 293 293 293 293 291 289 288 290 292 293 293 301 306
305 305 305 306 305 305 304 304 304 304 303 301 301 300 299 297 296 296 295 295 295 295 295 294 294 294 295 295 295 296 297 298 298 298 297 296 295 295 294 295 295 294 294 293 292 293 294 295 294 292 289 289 289 289 290 292 294 295 295 293 293 294 294 295 295 295 294 292 290 289 288 289 291 291 291 292 290 288 288 288 291 292 292 296 301
304 304 304 304 304 304 303 302 303 302 301 300 299 298 296 296 295 294 293 293 293 293 292 292 292 293 293 294 294 294 294 294 295 294 293 293 292 292 292 291 291 291 290 289 289 289 290 292 293 293 289 287 287 288 288 291 293 293 292 293 293 291 292 293 293 294 294 292 289 288 287 287 288 290 288 290 290 288 288 287 288 290 290 290 293
302 302 302 303 303 303 301 300 300 299 298 298 298 298 297 296 295 293 293 292 292 291 290 291 291 292 292 292 292 292 292 292 292 292 291 290 289 289 289 288 289 289 289 289 288 289 288 288 289 288 289 287 286 286 288 288 286 287 289 291 291 291 291 290 291 290 292 292 290 288 287 286 286 288 287 287 289 288 287 287 287 289 290 289 290
302 302 302 302 300 300 299 299 298 298 298 298 297 295 296 295 294 293 292 290 291 291 290 290 290 289 289 289 289 289 290 289 290 290 289 289 288 288 288 288 287 288 288 287 287 286 286 286 286 286 284 286 285 287 286 287 284 286 287 287 286 287 289 288 288 288 288 288 288 288 287 286 286 286 287 286 286 287 287 287 287 288 289 289 289
301 301 301 301 299 298 297 297 297 297 297 297 296 295 294 294 293 292 291 290 288 289 288 288 288 288 287 288 288 288 289 288 288 288 288 287 287 287 287 287 287 287 287 287 286 286 286 285 286 286 284 283 283 284 286 286 286 284 281 285 285 281 281 283 287 287 285 286 285 286 287 286 285 285 287 285 286 287 287 287 287 287 288 288 288
299 299 299 299 298 296 296 296 296 296 295 295 294 293 292 291 290 289 289 287 287 286 286 286 286 287 287 287 287 287 288 288 288 288 288 287 287 287 287 287 287 286 287 286 286 286 286 285 285 285 284 283 282 282 284 285 285 286 285 282 281 281 281 284 283 281 283 284 283 284 286 284 284 285 285 285 285 286 286 286 286 286 287 288 287
298 299 299 299 297 296 295 295 295 295 294 293 293 292 291 290 288 287 286 285 284 284 283 284 284 285 285 286 286 287 287 287 287 287 287 287 287 287 286 286 286 286 286 286 285 286 285 285 285 285 284 284 283 283 282 284 285 285 284 284 284 282 281 282 279 277 282 281 282 283 282 283 283 283 284 284 284 284 285 285 285 285 286 287 287
296 298 298 298 297 296 295 295 295 295 295 294 292 292 290 289 288 287 286 285 284 284 284 284 285 285 286 285 286 286 286 286 286 286 286 286 286 286 286 286 286 285 286 285 285 284 285 285 285 285 284 285 284 282 282 282 282 284 284 283 283 282 283 279 277 278 274 276 280 281 281 282 282 282 283 283 283 283 284 284 284 285 285 286 286
296 297 296 295 294 294 294 294 294 294 293 291 290 291 289 288 286 285 285 284 284 284 284 284 284 285 285 285 285 285 286 286 286 285 285 286 285 285 285 285 285 285 285 284 284 284 284 285 284 284 284 284 283 282 281 281 281 281 283 282 282 281 280 280 279 278 277 276 277 278 280 281 280 281 282 282 282 282 282 283 283 284 285 286 286
295 295 294 293 292 292 292 291 291 291 290 290 290 289 289 287 286 286 285 285 285 285 285 285 284 285 284 284 284 284 285 285 285 285 284 285 285 284 284 284 284 284 284 284 284 284 283 283 283 283 283 283 283 282 281 280 280 280 279 280 280 279 278 279 278 279 278 275 275 276 278 280 280 279 281 281 281 282 283 282 283 284 285 286 285
294 294 292 291 291 291 290 290 290 290 290 289 289 289 288 287 286 285 285 285 285 285 285 284 284 284 283 283 283 283 283 284 284 284 284 284 284 284 284 283 284 284 284 283 283 283 283 282 282 282 282 282 282 283 281 280 280 280 280 279 279 279 278 278 277 277 276 277 277 276 277 276 276 278 280 279 280 282 282 282 282 282 283 284 284
292 292 291 291 290 290 290 289 289 289 289 289 289 288 287 287 286 286 286 285 285 285 284 283 283 283 283 282 283 283 283 283 283 283 283 283 283 284 283 283 283 284 283 283 282 282 282 282 282 282 282 281 281 281 282 281 280 280 280 279 278 279 279 278 277 277 276 275 275 275 276 276 276 276 277 279 281 280 280 281 281 281 283 283 284
Wind_Speed
3 8 4 8 10 11 13 13 13 13 13 13 12 12 12 11 11 11 11 11 12 11 11 12 13 13 12 12 12 12 13 13 15 16 16 16 16 16 17 17 18 19 19 19 19 19 19 18 18 17 17 17 16 16 16 16 15 15 15 15 14 13 13 13 13 13 13 15 15 16 16 16 16 18 18 19 18 18 17 16 13 10 8 10 16
5 5 5 5 9 10 12 13 13 13 13 13 12 12 12 11 11 10 10 10 13 12 12 12 12 13 13 12 12 12 12 14 14 15 15 15 16 16 17 18 18 18 19 19 19 19 18 18 17 17 16 16 15 15 14 15 14 14 13 13 13 12 12 11 10 10 10 10 10 12 13 16 16 16 17 17 17 19 17 16 16 9 7 15 16
7 5 5 6 9 8 10 12 13 13 13 13 12 12 12 11 10 10 10 10 10 11 11 11 11 12 13 12 12 12 12 13 14 15 15 15 16 16 16 17 18 18 19 19 19 19 18 18 17 17 16 15 15 14 14 13 13 13 12 12 12 11 11 10 9 8 8 9 8 9 11 11 14 16 17 17 18 18 18 17 17 16 10 19 15
8 5 5 8 9 8 8 10 11 12 12 13 12 11 11 11 10 10 10 10 11 11 10 11 11 11 13 12 13 12 12 12 13 14 15 15 15 15 15 16 16 17 18 19 18 18 18 17 17 16 16 15 15 14 14 13 12 12 12 11 11 11 11 10 10 11 10 7 7 7 5 5 8 14 16 16 17 18 17 17 18 18 18 17 19
8 6 5 6 6 8 9 9 11 12 13 13 12 11 11 11 10 10 10 11 11 11 10 11 11 11 12 12 12 12 11 12 12 13 14 15 15 14 14 15 15 16 17 18 18 17 17 17 17 16 16 15 15 14 13 13 12 12 11 11 11 11 11 12 12 12 12 8 8 6 5 6 5 13 16 17 18 17 16 17 17 17 17 17 17
8 7 6 6 6 7 9 9 12 13 13 13 12 11 11 11 11 10 10 10 10 10 11 11 11 11 11 11 11 11 11 11 12 12 13 15 15 14 14 14 14 15 15 17 17 17 16 16 16 16 15 15 15 14 13 13 12 11 11 11 11 11 11 13 13 11 10 7 8 5 6 6 5 6 16 17 17 16 16 16 16 16 15 16 16
9 6 6 6 6 7 9 10 12 12 13 13 12 12 11 11 11 10 11 10 10 10 11 11 10 10 10 10 10 10 11 11 13 13 12 13 14 12 13 14 13 14 15 17 17 16 16 16 15 15 15 14 14 14 13 13 12 12 11 11 11 11 12 12 12 11 8 5 5 5 6 6 5 4 16 16 16 17 17 16 16 15 15 15 16
8 7 7 7 6 8 10 10 12 12 13 12 12 11 11 10 10 11 10 10 9 10 10 10 10 10 9 9 10 10 10 11 12 13 13 12 13 12 13 13 13 15 15 16 16 15 15 15 14 14 14 14 14 14 14 13 13 12 12 12 12 12 12 12 11 11 9 4 5 5 6 5 5 4 15 16 16 17 16 16 15 15 16 16 13
8 8 8 8 8 11 9 10 11 13 13 13 11 11 10 10 9 10 10 10 10 10 10 10 10 9 8 9 9 10 10 10 11 13 12 13 13 12 12 12 13 15 15 16 15 14 14 13 13 13 13 13 13 13 14 13 13 13 13 13 13 13 12 13 12 10 6 6 7 6 6 5 4 4 13 16 16 17 16 13 12 15 16 15 14
8 7 8 8 8 12 10 11 12 12 13 12 11 10 10 9 9 10 10 9 9 10 10 9 9 9 8 8 8 8 9 10 12 11 12 13 13 11 13 15 15 14 15 14 14 13 12 12 12 12 12 12 13 13 13 13 13 13 14 14 14 15 15 14 11 8 5 6 7 6 6 9 6 5 11 15 16 17 15 15 12 12 11 15 16
6 6 5 7 10 13 13 12 11 11 11 12 10 10 10 10 9 10 10 9 9 8 8 9 8 8 8 8 7 8 9 10 11 11 10 11 12 12 14 14 14 14 14 14 13 12 12 12 11 11 12 12 12 13 13 13 13 14 14 14 15 15 14 13 8 6 7 8 7 6 8 9 4 2 13 15 16 16 15 15 14 14 14 15 14
7 6 5 5 10 13 12 13 13 12 11 11 9 10 10 10 8 10 9 9 8 7 7 8 7 7 7 7 7 8 8 9 11 10 10 12 12 13 13 14 13 13 13 13 13 12 12 11 11 11 11 12 12 13 13 13 13 13 14 14 15 14 13 12 6 6 6 7 7 5 4 4 4 7 14 14 14 16 15 15 14 14 15 14 14
6 6 6 6 6 9 11 12 13 12 12 12 12 10 9 9 9 9 10 9 8 7 6 6 6 7 7 7 7 7 8 9 11 10 11 11 12 12 13 13 13 13 13 13 13 13 12 11 11 11 11 11 12 12 13 13 13 13 14 14 14 14 12 11 6 6 7 7 6 6 5 4 3 11 12 13 13 14 15 14 14 14 14 14 14
5 5 5 5 4 8 10 10 11 13 13 13 12 11 10 10 9 10 10 10 8 7 7 6 6 7 8 8 8 8 7 9 10 11 12 11 11 11 12 13 13 13 13 13 13 12 12 12 11 11 11 11 12 12 12 13 13 13 13 14 13 12 12 9 9 7 7 7 6 7 6 5 4 11 12 13 14 14 13 13 13 13 13 13 13
6 4 5 5 5 4 8 10 9 10 10 10 10 8 9 8 8 8 9 8 9 8 7 7 7 8 8 9 8 9 8 9 10 10 11 11 11 11 11 13 14 14 14 13 12 12 12 12 11 11 11 11 12 12 12 12 12 12 13 13 12 10 11 6 7 6 7 7 6 7 7 5 10 12 13 14 14 13 12 12 12 12 12 12 13
5 4 4 4 5 5 4 7 9 9 8 8 8 8 8 7 7 8 9 9 8 9 7 7 8 10 9 9 9 9 10 10 11 12 11 11 11 11 11 13 13 13 13 12 12 12 12 11 11 11 11 11 11 11 11 12 12 12 12 12 8 11 12 8 7 6 6 6 6 6 6 6 9 10 11 13 13 13 12 12 12 12 12 12 13
7 5 5 4 3 3 5 5 6 9 8 8 8 7 7 6 5 6 8 8 8 8 7 8 9 9 9 9 9 9 9 10 12 12 11 10 12 12 13 14 14 13 12 12 12 12 12 11 10 11 10 10 10 11 10 11 11 12 12 10 9 11 13 10 7 6 6 6 6 6 6 6 7 9 10 10 12 12 12 12 11 11 11 11 11
6 7 6 4 3 2 2 6 5 6 5 6 6 7 6 7 6 5 6 7 6 7 7 7 7 8 8 9 9 9 8 10 10 10 10 9 11 11 12 13 13 13 12 12 11 12 11 11 11 11 11 10 10 10 10 10 11 11 10 10 9 12 12 10 6 6 6 6 6 5 6 10 12 8 11 13 12 12 11 11 10 10 9 10 10
5 6 5 6 4 4 2 1 3 5 5 4 3 5 6 4 5 5 6 7 7 6 6 7 8 8 8 8 8 8 9 10 10 10 9 9 8 10 11 11 13 13 12 12 12 12 10 10 11 11 11 12 11 11 10 10 10 10 10 9 10 10 11 7 5 6 6 6 5 6 6 14 12 9 9 11 13 11 10 10 9 8 8 9 10
7 8 7 6 4 4 3 3 0 3 5 5 5 5 5 7 5 4 5 7 7 7 7 8 8 7 7 7 7 6 6 7 10 9 10 8 7 7 8 9 12 12 12 12 12 10 9 9 9 10 11 11 11 10 11 12 12 11 9 9 9 9 7 6 5 6 5 5 4 5 8 13 14 9 10 11 12 11 10 9 9 9 8 8 9
6 7 7 7 8 8 7 4 2 0 2 5 6 6 7 9 6 6 4 6 7 7 7 9 7 6 6 6 6 4 4 4 5 4 8 7 9 9 8 8 9 10 11 12 11 9 8 9 8 8 9 9 7 7 8 10 11 11 10 11 10 7 6 6 5 5 5 5 4 5 9 10 12 10 8 10 10 9 8 7 7 8 8 8 8
6 6 6 7 7 7 6 6 5 4 1 2 4 5 5 7 6 5 4 4 5 5 6 5 6 4 5 5 3 4 4 4 5 5 3 5 6 8 8 9 8 9 10 10 10 8 8 8 8 7 6 6 6 4 5 7 10 10 10 11 8 7 7 6 6 6 5 5 4 5 9 9 9 9 8 8 9 8 6 7 5 6 7 7 8
7 6 6 7 6 6 6 6 6 6 5 3 1 6 7 6 6 5 4 4 4 6 4 5 4 5 4 4 4 4 4 5 5 7 6 7 7 9 10 9 9 9 9 9 8 7 7 8 7 7 6 6 5 4 5 5 6 9 8 7 7 7 6 6 5 5 5 4 5 8 9 8 8 9 7 10 11 10 9 6 6 5 5 5 6
4 4 4 5 7 6 7 6 4 5 5 2 2 3 6 5 5 5 4 5 4 4 3 3 3 3 2 1 2 4 5 4 6 8 8 6 6 8 10 9 9 10 10 7 7 5 7 6 7 6 5 4 4 5 6 5 6 5 6 6 6 5 5 5 5 4 4 4 4 10 10 10 8 7 8 9 10 11 11 10 11 11 9 9 4
3 3 5 6 6 6 6 7 7 3 3 5 2 1 4 5 5 5 5 5 4 3 3 2 3 3 3 2 3 3 3 3 3 5 5 5 5 4 5 4 4 5 6 4 5 4 4 3 4 5 4 4 5 5 5 6 5 5 6 6 6 5 5 6 5 4 3 4 4 8 10 11 10 9 8 8 10 10 12 12 13 14 13 12 14
5 5 5 5 5 6 6 6 8 5 3 3 3 0 2 3 5 6 5 4 4 4 4 4 4 4 4 3 3 4 5 2 2 1 1 4 6 5 4 4 4 5 4 4 4 3 2 4 5 5 3 3 4 4 4 4 4 5 5 5 6 4 5 5 5 5 4 3 4 8 8 11 13 12 10 10 9 10 10 11 12 12 11 14 11
5 4 4 3 5 6 7 6 7 7 5 3 4 4 6 6 5 4 4 4 4 5 5 7 6 6 5 4 3 3 3 1 1 2 2 3 5 4 4 4 4 5 3 5 4 3 4 4 5 4 3 3 3 3 4 4 4 4 4 4 4 4 5 5 5 6 5 4 4 8 8 11 13 13 13 12 11 11 11 11 11 12 13 12 14
2 4 3 4 5 6 6 6 7 5 4 3 2 7 5 7 7 8 8 8 9 7 7 7 6 6 7 6 5 4 3 3 3 3 1 2 2 3 3 3 2 2 2 4 5 5 4 4 4 3 4 4 4 3 3 4 4 4 4 4 4 5 5 4 4 5 6 6 4 6 9 10 13 14 15 14 14 13 13 12 13 12 12 12 13
5 5 4 5 5 6 7 7 5 4 3 3 8 6 7 8 7 8 7 8 8 7 6 7 7 7 8 7 6 6 5 4 4 5 6 5 4 4 4 4 4 2 3 3 3 4 4 4 4 4 4 4 5 3 3 3 4 4 5 4 4 4 4 5 4 4 5 5 6 6 9 9 11 15 16 17 16 16 15 16 15 14 14 14 13
5 4 5 5 5 6 6 6 6 5 7 8 6 7 6 8 7 8 7 8 7 6 7 6 7 8 7 7 7 6 6 5 5 5 7 6 7 7 6 5 5 4 4 4 4 4 5 5 5 5 4 4 4 2 3 3 3 4 5 4 4 3 3 4 4 4 4 5 5 7 10 9 11 14 17 18 18 18 19 17 17 16 15 16 16
5 5 5 5 5 5 6 6 7 6 7 8 7 8 7 9 7 7 7 8 7 7 6 6 8 8 7 6 7 7 7 7 6 6 7 7 7 7 6 5 7 6 5 5 4 4 5 6 5 4 4 3 2 2 5 5 4 4 4 4 4 3 4 4 4 5 5 6 7 6 9 14 14 13 16 16 19 20 20 19 19 17 17 17 16
5 5 5 5 4 6 6 7 6 6 9 8 8 8 9 8 8 7 8 8 8 7 8 8 8 8 7 7 7 7 7 8 8 8 8 7 7 7 6 7 6 6 5 5 6 7 7 6 7 6 6 5 6 7 7 8 7 6 5 6 5 6 5 4 6 7 8 8 8 8 7 8 13 15 14 16 19 19 19 19 19 19 19 18 17
3 4 5 5 6 5 6 7 5 8 9 8 9 8 8 8 8 8 8 7 8 8 8 7 7 7 7 7 7 7 7 7 8 9 8 8 7 8 8 8 6 5 6 7 8 8 8 8 9 9 9 8 8 7 6 7 7 5 5 6 6 6 6 7 7 8 8 8 8 7 7 7 8 11 13 12 16 20 20 20 20 20 20 20 18
3 3 4 5 4 4 4 4 6 9 9 7 8 9 8 8 8 8 8 8 8 10 8 6 8 7 7 8 8 9 8 7 8 9 8 8 8 9 8 8 6 6 8 8 8 8 8 9 7 8 7 7 6 6 8 8 6 6 7 6 6 7 7 7 7 7 8 8 7 8 7 7 7 7 7 12 13 19 22 21 20 21 21 20 19
3 3 5 5 6 5 4 6 6 9 10 9 10 10 7 9 10 9 8 9 10 9 7 7 7 7 8 8 9 9 9 9 9 9 8 8 8 8 8 7 7 7 9 7 8 9 9 9 8 7 7 7 5 6 6 5 6 7 6 6 7 6 7 7 7 8 8 8 8 7 8 7 7 7 7 8 10 15 20 22 21 22 22 21 20
3 3 4 5 7 6 6 8 8 10 10 8 9 10 9 10 10 9 9 9 9 9 8 7 7 7 7 8 9 10 10 9 9 8 9 9 8 9 7 7 7 7 8 8 8 9 8 9 9 8 7 7 7 7 6 6 6 6 6 6 5 6 7 7 8 9 8 8 8 8 8 8 8 8 8 8 8 10 18 19 21 21 22 21 21
3 4 5 5 6 7 7 9 10 10 11 10 11 10 10 10 11 11 11 9 9 9 8 7 8 8 7 7 8 9 9 9 10 9 9 9 8 8 7 8 7 8 8 8 9 6 8 8 9 8 6 5 6 6 6 6 5 5 6 5 5 7 7 7 8 8 8 9 8 8 8 9 8 9 8 9 9 8 11 17 18 18 18 20 21
4 4 5 6 6 6 7 8 8 9 9 9 10 10 9 11 11 10 10 10 10 8 7 8 8 7 7 8 8 8 8 9 9 9 10 9 8 8 8 8 8 8 8 8 8 7 7 8 9 8 7 7 8 7 6 6 4 5 5 5 7 8 7 8 7 7 8 9 8 8 7 7 8 8 8 8 9 9 8 11 15 15 15 18 20
3 4 4 6 7 7 8 9 9 9 10 11 11 11 11 13 11 11 11 10 9 8 7 8 7 7 8 8 9 8 8 9 9 9 9 9 9 9 9 9 8 8 9 9 8 8 7 8 8 7 7 8 7 6 4 3 4 5 7 7 8 8 7 6 7 7 8 7 8 7 7 8 7 8 7 7 8 9 10 9 8 8 10 15 17
4 4 4 4 6 7 8 9 8 8 8 9 8 9 9 9 11 9 11 9 8 8 8 8 7 8 8 8 9 9 8 9 10 9 10 9 9 9 9 9 8 8 10 10 8 7 7 7 9 9 8 8 9 7 7 5 6 7 8 9 8 9 9 8 8 7 7 8 7 8 8 6 8 8 8 7 7 8 9 9 8 8 8 10 15
5 5 4 4 5 6 6 8 8 7 7 8 7 7 9 10 9 10 10 7 8 8 9 8 8 8 9 9 10 9 9 10 9 9 10 10 10 9 9 9 8 9 9 9 7 8 7 6 5 7 9 11 11 10 9 3 6 5 4 5 8 6 8 9 9 8 7 6 6 8 7 8 7 7 7 7 7 7 8 9 8 8 8 7 9
4 4 5 4 4 5 6 7 6 5 4 5 7 6 4 5 10 8 9 7 7 8 9 8 8 8 10 10 9 9 9 9 9 9 10 10 9 9 9 8 8 8 9 8 10 10 10 9 4 6 5 9 8 9 10 4 6 2 2 2 4 4 5 7 8 7 6 6 6 7 7 8 9 6 6 8 7 7 7 8 8 8 8 8 8
6 5 4 6 6 5 5 6 5 6 6 7 7 8 7 6 9 8 9 10 7 7 9 8 7 9 9 9 8 8 9 9 9 9 9 9 9 9 8 8 9 7 10 11 10 11 8 8 7 5 6 5 7 7 10 7 3 1 0 4 2 1 4 6 4 5 5 5 6 7 7 9 10 6 6 7 7 6 6 7 8 8 8 8 8
6 5 5 6 6 6 6 7 7 6 7 6 9 10 10 11 11 10 9 10 9 7 9 7 8 11 11 8 8 8 9 9 9 9 9 9 9 10 8 9 9 8 9 10 9 9 8 8 7 7 4 8 6 8 8 10 8 3 3 2 0 2 4 4 6 4 3 4 8 7 7 8 9 8 6 8 7 7 7 7 8 7 7 7 7
5 5 4 5 5 7 7 8 8 8 7 9 11 12 12 12 11 11 11 11 8 8 9 9 8 8 9 9 8 7 9 9 9 9 9 10 9 9 10 9 9 8 7 9 8 7 7 6 7 8 8 6 7 5 8 8 10 8 4 3 4 5 0 4 4 4 5 6 7 7 7 8 8 8 6 7 7 7 7 8 7 7 7 7 7
5 4 5 6 8 7 8 8 7 8 9 9 9 8 10 12 10 10 10 9 9 7 8 8 7 8 8 5 8 8 8 9 9 10 9 9 10 9 8 9 8 7 7 7 7 8 8 9 7 6 8 6 7 8 7 6 7 8 8 6 3 2 1 4 5 5 5 1 4 5 5 6 6 7 6 7 7 7 8 8 7 8 7 7 7
4 5 6 7 8 7 7 7 8 8 8 7 5 7 8 7 8 8 8 10 11 6 5 5 8 6 7 9 8 8 8 10 9 8 8 8 8 8 8 8 8 7 7 8 8 8 7 7 7 8 7 6 6 9 7 5 5 8 7 6 7 4 2 4 3 3 5 5 4 5 4 6 6 5 6 6 5 7 8 7 7 7 7 7 7
5 5 6 6 7 7 7 7 7 7 5 5 5 6 10 9 10 10 9 9 10 11 8 7 6 7 9 9 8 8 7 7 8 8 7 7 7 8 8 8 8 7 7 7 7 6 7 6 7 7 7 7 7 8 6 6 7 4 5 8 7 5 5 6 5 1 2 7 6 2 0 6 5 5 6 7 7 8 9 8 7 7 7 7 6
6 7 6 6 6 6 7 7 7 7 6 7 8 7 9 10 10 10 11 8 9 9 8 7 8 7 10 7 8 7 7 7 7 8 7 7 7 7 7 8 8 7 6 7 7 7 8 8 8 8 8 8 6 5 7 6 7 5 5 5 5 5 4 3 4 5 3 3 5 5 10 3 1 3 7 5 6 9 9 8 7 6 6 7 7
6 6 6 6 6 5 7 8 7 7 7 8 10 9 9 9 10 10 14 11 9 8 7 8 7 7 9 7 6 7 6 7 7 6 7 7 7 7 7 7 7 7 7 7 7 8 7 7 7 6 7 8 6 7 6 5 5 4 5 4 6 5 5 5 4 4 3 0 3 9 7 12 13 4 5 3 6 9 8 8 7 7 7 7 6
6 7 7 6 6 7 7 8 7 7 8 9 11 11 8 8 10 11 13 14 11 11 11 8 7 7 9 7 7 6 5 6 6 6 6 6 7 6 7 7 6 6 7 7 6 7 6 6 6 7 8 7 6 6 7 5 5 6 6 6 5 5 3 3 3 4 2 2 5 5 6 5 6 12 2 5 6 7 6 6 6 6 6 7 7
Wind_Direction
192 140 143 150 145 145 139 133 130 126 122 118 113 108 106 104 99 97 98 94 84 87 91 88 88 86 91 94 92 94 91 90 89 88 83 79 77 76 76 76 71 66 64 61 58 55 53 51 49 46 45 43 42 42 42 40 38 37 36 34 31 32 33 33 32 35 40 44 45 48 52 55 58 59 59 57 56 57 55 51 44 39 44 45 51
168 149 137 142 144 146 140 135 132 129 124 119 116 111 107 103 100 94 97 96 97 93 93 95 91 87 86 90 96 94 91 90 90 87 85 81 81 81 79 78 77 74 69 63 59 56 53 50 48 46 43 41 40 40 39 40 39 37 37 33 27 22 24 27 29 29 24 20 29 45 48 55 58 61 64 62 60 56 54 51 49 46 35 48 48
138 134 138 137 139 143 141 137 133 130 126 120 116 113 108 106 106 105 98 98 95 94 92 91 86 84 79 81 93 96 95 94 90 89 88 85 82 82 82 80 78 74 68 63 58 55 52 49 46 43 40 39 39 38 39 39 38 37 37 35 27 17 14 15 21 25 27 26 30 53 50 47 58 63 63 60 59 56 51 49 47 46 41 44 48
128 137 130 132 138 144 138 141 133 129 126 121 118 115 112 109 108 107 106 101 99 97 92 90 87 86 86 81 87 95 96 95 95 94 92 92 89 85 83 82 78 74 68 62 57 54 50 48 45 43 39 36 36 37 38 38 37 36 35 34 28 14 6 7 8 16 15 34 63 59 55 45 49 62 66 68 62 56 52 47 43 41 38 34 38
131 136 130 128 134 141 140 140 135 130 129 126 123 120 117 113 110 109 109 105 100 97 94 89 88 88 88 86 83 88 92 93 90 92 97 96 92 86 83 81 79 73 68 61 58 55 50 46 44 41 37 36 35 35 35 35 36 37 33 32 27 16 2 3 5 14 16 66 75 65 55 51 42 60 66 63 61 55 54 49 45 42 39 36 32
140 138 134 130 133 140 143 143 142 136 133 130 127 123 121 119 115 113 110 108 106 104 99 95 92 90 86 83 85 86 92 96 101 98 91 94 91 86 87 81 73 72 68 65 60 54 50 47 44 41 38 35 34 33 33 33 34 35 34 32 27 18 6 7 6 10 18 54 73 67 55 51 45 54 62 61 60 55 52 50 46 43 40 37 34
142 140 136 132 134 142 147 145 144 139 137 134 130 128 126 123 120 115 112 111 108 105 104 104 103 100 94 89 89 88 89 95 96 89 95 91 88 88 85 85 82 73 69 65 59 54 50 47 45 43 41 37 36 34 32 32 32 32 33 30 23 17 10 13 2 359 15 48 74 63 58 53 50 44 62 61 59 55 51 48 47 44 41 40 36
136 147 144 137 135 147 146 145 148 146 141 136 135 133 129 128 125 120 118 114 113 110 109 108 107 104 101 101 96 93 94 100 102 102 93 94 94 91 86 81 78 76 69 65 60 55 51 48 46 45 44 42 40 38 35 34 32 32 31 25 21 17 15 12 2 2 8 61 70 69 62 55 49 52 64 63 61 57 52 48 45 43 41 39 38
148 153 144 141 141 146 151 143 150 150 145 141 137 136 133 130 126 127 124 121 118 117 114 112 114 110 103 97 96 93 93 98 102 104 103 97 94 90 88 84 81 77 75 70 66 61 57 54 52 51 50 47 45 44 40 36 35 32 29 26 24 21 12 7 2 10 13 78 76 69 66 57 45 54 68 65 62 58 55 52 44 43 42 38 38
151 152 144 142 149 148 148 144 152 152 149 144 140 139 138 133 132 131 127 124 121 120 123 121 118 113 103 101 96 94 92 96 104 107 110 107 104 99 85 87 84 81 78 76 74 67 63 61 59 59 58 56 53 49 46 42 39 36 32 30 26 19 11 5 359 13 35 68 75 74 70 68 50 36 70 66 62 59 58 55 54 48 43 40 35
112 139 136 140 147 149 150 145 149 151 153 149 144 142 141 139 140 136 130 128 126 128 126 122 117 112 107 99 94 91 96 100 109 109 110 108 105 98 90 87 85 82 81 80 76 70 66 64 63 65 64 63 60 57 51 47 43 39 36 31 27 19 12 6 9 27 61 66 63 56 60 61 72 73 65 63 60 59 57 55 52 50 47 43 38
110 109 115 121 140 143 147 145 147 151 153 150 149 147 148 145 145 141 138 133 134 132 126 118 113 105 103 92 93 97 97 102 106 111 111 109 109 102 96 92 88 84 82 79 76 72 67 63 63 65 67 66 65 61 56 51 48 44 40 34 28 21 13 11 20 34 59 68 66 63 57 54 63 65 65 57 51 54 54 52 51 49 47 44 46
97 111 117 120 124 138 139 145 144 143 148 160 154 152 156 147 148 144 143 142 137 134 121 111 108 100 89 80 81 90 98 98 109 113 113 110 107 105 102 99 94 90 84 77 73 70 66 63 61 61 63 65 66 63 57 53 51 47 42 37 29 24 17 20 20 30 58 59 52 35 24 20 39 62 56 48 42 49 52 52 51 49 47 45 47
90 102 107 112 109 127 134 141 145 146 159 161 157 159 157 150 157 150 148 146 141 133 126 117 114 104 98 93 92 90 101 102 111 119 117 113 114 109 109 104 97 89 82 77 74 70 66 63 61 59 58 58 60 60 59 56 52 49 44 37 30 28 24 28 31 48 59 52 45 36 27 9 32 57 48 39 42 50 49 50 48 50 49 48 47
87 106 115 112 112 107 125 136 149 149 153 157 158 152 157 158 159 152 148 148 147 136 131 133 127 119 114 108 108 111 111 114 113 115 118 115 111 112 104 95 91 89 85 80 78 75 72 68 64 60 60 58 56 55 54 54 52 45 42 36 33 32 36 38 37 49 56 46 34 29 22 3 37 44 43 44 46 45 45 46 47 50 50 49 46
59 95 106 106 113 112 111 129 135 138 145 150 146 158 164 157 155 152 151 152 152 143 139 134 129 124 124 127 122 122 124 120 122 129 131 125 120 115 107 100 98 95 94 91 85 82 77 73 71 70 69 69 66 61 54 52 49 42 35 32 24 33 38 44 49 54 54 48 37 28 10 359 7 43 39 44 48 50 45 45 52 52 50 48 49
33 54 105 115 111 109 118 118 123 137 132 136 144 158 159 159 154 154 148 155 154 147 138 134 134 132 130 123 121 124 128 132 134 136 134 130 132 128 119 115 111 108 105 101 93 89 85 82 77 76 74 74 77 74 66 56 49 40 37 36 31 39 44 52 62 56 52 42 41 24 8 359 7 36 34 46 55 52 48 45 51 52 50 49 45
47 58 62 69 66 97 130 123 120 121 127 136 152 159 166 163 158 143 144 150 153 143 135 130 134 129 124 125 126 126 126 129 132 132 126 129 132 124 122 120 115 112 106 98 93 86 85 84 79 74 70 65 68 74 73 66 52 48 45 41 41 45 46 57 67 65 58 46 31 19 10 3 9 33 45 48 56 52 46 46 47 49 49 48 42
43 46 47 51 54 60 55 138 157 136 129 137 151 159 161 163 157 147 138 149 148 142 132 125 122 127 130 126 127 127 129 129 130 129 125 124 131 125 125 124 120 114 107 97 90 84 84 86 81 76 70 61 54 56 59 55 50 50 51 49 50 48 50 61 72 68 60 52 32 17 9 9 7 38 44 48 44 42 43 48 45 42 47 40 47
39 32 25 16 26 41 44 77 104 153 154 166 160 167 171 159 159 145 138 145 150 148 136 125 125 127 126 120 108 103 113 127 132 132 132 126 122 120 124 118 116 113 109 103 95 92 89 87 84 79 75 71 58 44 36 37 36 35 37 44 44 44 47 65 78 78 71 58 45 23 15 12 8 38 38 44 42 37 43 49 44 42 45 35 37
27 30 31 15 16 12 359 19 50 139 198 177 174 168 172 161 160 157 161 153 155 153 133 116 109 98 102 98 103 110 117 108 124 136 140 139 142 133 123 115 110 113 111 107 103 101 94 87 86 80 74 71 63 50 34 29 27 28 27 25 26 31 32 49 65 74 75 67 49 28 30 20 10 25 28 45 41 37 36 34 40 38 39 32 27
24 11 19 18 12 5 358 1 1 355 65 201 176 166 160 165 165 154 169 163 156 147 126 131 124 129 121 140 151 147 142 145 137 134 134 136 134 126 123 124 121 118 114 108 107 104 97 89 81 76 69 56 47 43 34 32 36 36 25 22 23 22 26 30 39 43 48 43 42 35 37 33 22 17 36 42 51 41 30 14 34 15 24 15 17
25 11 360 12 4 351 358 354 354 348 340 36 135 160 158 164 162 165 165 171 153 138 152 146 154 146 163 169 171 152 152 161 153 157 154 152 148 145 143 136 127 125 115 112 116 107 94 83 65 48 49 50 46 42 44 43 35 33 28 25 27 26 28 38 35 39 33 26 22 24 33 36 28 20 16 31 32 24 17 22 11 1 348 349 2
29 17 352 352 1 2 343 337 341 337 333 26 59 156 163 162 162 161 168 175 168 172 164 147 140 139 120 130 186 173 162 162 164 163 147 146 148 151 144 133 132 124 123 122 119 105 87 68 53 43 52 52 55 46 53 46 39 34 30 26 27 24 37 37 55 40 31 22 19 25 19 20 21 18 13 3 10 12 13 17 6 6 6 358 335
18 5 10 359 351 349 346 331 327 318 340 322 82 179 177 170 162 167 170 168 171 152 124 105 121 115 149 122 63 70 96 117 161 170 161 139 141 147 132 132 129 124 124 124 123 119 106 88 72 68 67 68 58 54 59 52 41 38 29 21 22 21 26 25 41 50 24 15 21 29 21 16 14 8 359 355 4 4 1 5 8 7 6 353 6
6 27 357 351 342 338 340 326 316 307 311 298 301 249 174 147 168 171 155 164 134 105 63 82 56 58 39 88 92 85 64 57 94 357 101 145 148 148 141 139 153 141 148 141 136 118 109 116 108 96 90 86 87 82 76 85 65 43 30 21 23 20 25 20 21 33 24 18 8 27 24 19 12 12 7 357 360 3 0 354 357 6 5 8 9
12 17 357 345 334 335 328 320 307 300 289 303 292 31 72 73 73 75 91 77 79 98 76 66 63 57 43 37 64 107 123 106 206 124 115 186 154 143 147 142 160 156 172 142 124 124 126 121 112 118 94 78 72 70 73 74 79 64 37 25 19 14 20 22 20 17 26 13 11 19 19 21 16 10 11 10 9 5 0 355 354 355 358 3 17
37 19 355 331 335 324 315 310 299 283 273 283 341 66 73 75 72 79 79 84 79 70 78 77 70 63 53 43 43 49 101 94 50 125 114 103 150 127 105 113 98 83 99 115 120 130 121 95 98 89 74 58 61 32 58 79 76 74 53 28 22 16 14 15 18 23 25 21 13 4 14 17 14 12 11 13 15 13 11 5 358 355 353 356 1
30 19 349 340 331 320 310 317 308 293 266 48 80 82 80 78 76 77 77 82 80 75 73 83 72 64 54 47 41 54 45 70 68 55 84 56 40 96 115 96 115 110 102 114 111 106 82 85 81 71 70 66 57 35 50 44 68 66 65 35 22 18 12 18 22 18 21 31 19 5 10 9 8 13 15 15 18 19 18 15 11 5 3 358 356
21 9 351 341 330 322 332 343 3 46 74 86 81 80 77 84 75 77 78 73 78 78 73 69 72 62 54 46 45 56 56 57 68 69 70 62 62 49 49 54 52 45 64 61 51 83 93 72 66 70 73 64 54 61 74 59 50 58 58 47 17 14 20 30 23 24 29 22 19 16 9 5 5 13 16 17 21 20 17 15 13 12 10 8 4
12 9 351 344 320 342 0 15 36 49 73 81 82 81 81 79 75 78 76 74 74 73 66 64 65 59 53 50 54 56 66 58 57 67 69 66 60 55 53 49 48 37 56 72 63 74 69 70 72 73 61 64 47 9 57 61 45 42 36 38 358 18 12 11 30 28 28 18 21 28 26 24 22 18 17 22 21 18 15 14 14 13 14 12 8
13 359 349 327 353 14 15 25 48 59 74 77 80 78 78 79 71 73 72 69 70 65 62 55 56 57 44 44 50 55 63 67 60 60 66 67 65 60 52 50 40 28 35 58 56 46 49 40 30 22 39 47 20 20 24 44 35 14 7 22 3 17 2 6 40 35 31 30 29 33 34 27 27 25 24 26 23 18 18 17 17 19 18 15 13
15 353 345 355 14 11 28 30 39 70 73 75 80 78 76 78 75 66 70 68 69 69 57 52 58 54 50 48 49 56 62 69 67 67 69 63 61 63 56 51 43 38 44 53 58 52 50 44 36 41 39 41 36 21 27 43 37 9 15 12 17 17 15 38 45 45 43 43 40 36 34 31 32 29 26 23 19 22 22 21 22 20 16 13 12
13 0 5 27 24 24 38 46 39 68 66 67 78 78 73 78 76 70 66 72 70 67 59 53 57 57 55 49 52 53 58 62 69 71 68 69 64 61 62 53 43 43 51 49 53 47 49 48 41 49 38 40 35 21 28 23 12 8 17 360 13 25 48 51 53 54 54 49 44 41 32 34 34 33 30 24 19 22 24 22 22 20 15 11 11
33 26 31 31 51 46 44 63 40 72 69 66 76 78 72 80 76 68 69 69 69 70 65 59 59 59 60 56 56 57 60 61 62 70 67 67 66 62 55 56 55 48 56 51 65 59 54 50 39 46 43 35 28 33 30 28 12 8 356 3 14 46 56 62 58 56 52 47 41 31 27 27 25 27 26 26 21 18 22 23 23 21 16 12 11
43 29 55 58 64 61 57 82 62 77 76 74 77 83 79 78 82 77 70 63 73 71 63 61 61 60 60 65 66 65 63 63 68 71 74 64 65 64 53 49 51 56 56 54 59 62 60 56 45 44 44 28 23 20 20 20 10 357 356 13 32 63 62 59 61 60 55 51 41 36 34 32 30 27 29 29 23 17 15 18 20 20 17 15 13
51 44 65 79 76 76 64 82 85 80 86 84 85 78 81 85 80 78 76 69 70 65 62 59 59 56 52 57 57 66 66 67 68 66 74 70 65 66 58 56 55 59 56 56 57 58 67 65 51 43 51 44 32 22 18 18 1 7 8 30 43 54 53 59 64 70 59 53 43 40 38 33 33 34 33 30 25 17 6 11 14 14 10 10 15
54 64 78 84 84 88 82 78 87 91 91 89 86 89 89 85 81 75 73 71 67 66 61 60 61 57 57 55 53 56 61 64 66 68 73 69 67 66 59 52 55 58 59 59 59 57 63 65 61 44 39 41 32 24 10 1 13 17 44 57 53 56 59 67 70 64 63 52 43 40 36 34 31 30 32 29 27 18 13 4 6 7 4 5 13
83 78 76 101 100 102 101 90 87 96 103 98 96 97 94 87 84 81 75 71 68 66 64 65 61 59 58 55 57 58 57 64 66 67 73 71 68 61 58 50 55 60 61 57 51 50 58 59 64 49 42 47 43 23 4 346 28 70 71 61 62 56 51 52 61 65 61 56 47 38 39 32 28 26 25 29 20 18 12 8 5 4 357 357 5
101 91 75 90 110 100 110 113 109 110 108 109 114 107 97 94 96 90 79 71 72 71 65 65 59 61 59 57 57 61 57 61 65 68 71 72 71 66 67 57 56 63 64 59 49 45 47 55 51 49 37 36 37 23 18 19 71 73 75 62 58 61 56 58 53 54 55 48 44 38 37 27 32 21 23 23 18 14 13 6 2 359 357 352 357
96 100 87 78 99 116 117 110 121 125 120 117 109 109 110 107 90 89 92 86 83 82 73 62 62 61 61 61 58 60 60 62 60 65 70 71 69 67 66 60 57 62 65 64 61 57 50 50 53 43 43 41 26 17 12 22 66 64 33 60 60 53 62 59 56 47 46 45 40 43 32 34 25 21 13 17 18 10 10 3 358 353 355 353 350
113 110 110 93 92 96 104 103 94 92 95 102 112 97 75 93 112 105 103 90 86 83 81 68 68 65 61 61 61 59 63 63 62 67 68 69 72 67 63 61 60 65 70 65 57 52 47 43 36 58 36 59 46 16 7 42 28 71 30 13 21 12 53 67 60 40 41 38 36 40 29 31 21 15 3 18 13 7 1 360 354 350 346 351 348
129 125 123 108 96 87 89 93 89 95 94 95 99 101 98 90 100 108 106 98 70 80 85 83 77 74 63 61 60 60 63 62 60 62 68 66 71 73 66 64 57 59 64 55 52 49 45 44 39 65 57 41 66 31 29 41 66 355 20 79 2 356 325 14 32 53 40 35 35 37 27 27 11 8 1 16 4 359 355 354 351 347 339 343 346
130 125 125 114 107 107 105 99 94 90 95 95 99 92 94 96 86 99 88 92 106 88 82 75 72 71 62 60 55 62 63 67 61 65 70 66 66 68 67 61 57 53 65 68 57 54 45 43 44 42 56 67 35 36 29 26 39 46 29 75 264 88 353 341 343 308 14 52 33 34 27 23 1 1 2 11 355 352 350 346 345 338 334 331 340
133 139 137 123 118 119 115 111 110 109 107 115 113 115 109 99 101 92 94 91 75 81 83 66 65 73 77 58 54 60 66 68 64 64 67 67 64 65 68 66 65 57 64 69 65 60 57 53 50 56 46 79 59 45 28 31 39 32 116 57 9 30 203 276 327 295 351 17 14 26 25 22 0 357 0 353 351 348 343 340 335 333 329 330 332
126 125 119 117 120 119 117 113 112 115 118 117 120 121 120 123 123 117 108 100 91 82 85 99 86 75 78 82 64 59 66 67 62 63 64 66 66 65 69 72 69 65 64 72 70 61 49 52 40 60 57 40 90 58 39 15 46 47 46 63 107 144 298 300 54 322 349 348 29 11 26 18 352 350 353 345 350 343 338 334 330 327 325 326 326
123 117 112 115 115 121 120 122 124 122 125 126 122 117 105 101 104 106 108 114 113 88 98 91 96 92 88 75 71 59 57 68 62 66 68 70 73 70 72 73 72 69 64 68 64 62 59 54 46 54 54 53 55 72 54 359 5 30 33 55 65 63 61 68 20 305 340 321 12 4 3 4 350 346 345 337 336 343 330 329 327 322 322 320 324
123 113 113 116 123 127 122 119 122 121 118 115 100 111 112 111 109 105 105 108 110 120 115 103 93 96 83 76 73 67 62 65 74 68 69 70 75 72 72 71 71 64 69 69 71 65 67 56 59 62 63 57 61 78 73 35 70 1 15 32 22 42 66 77 73 102 261 315 318 321 37 358 350 325 335 331 335 338 325 322 323 323 322 319 320
126 127 128 128 121 116 109 108 108 112 114 112 110 102 110 117 117 119 109 106 113 114 113 104 99 95 90 81 79 75 71 65 67 75 71 74 73 79 76 76 75 72 73 76 71 69 69 68 57 56 60 57 59 73 77 58 58 47 30 12 29 31 22 67 60 42 39 312 295 345 321 314 316 287 332 323 334 328 318 314 312 318 323 319 324
127 122 122 122 121 117 109 108 107 111 117 115 115 114 115 122 121 125 124 125 123 115 110 110 105 102 97 92 87 82 80 77 70 71 77 75 79 80 82 82 84 82 77 79 78 70 67 68 69 72 67 69 54 64 79 77 78 67 73 67 53 8 21 11 18 17 347 6 312 317 323 329 334 321 296 319 338 311 312 312 320 330 330 325 328
131 130 128 129 130 121 118 109 116 115 119 123 124 126 125 128 129 134 133 132 133 128 124 115 115 110 109 106 102 99 89 88 86 77 79 85 85 81 83 80 79 78 79 76 77 83 78 80 77 73 68 72 68 69 65 63 68 59 52 65 78 85 91 63 355 9 61 329 330 292 308 297 284 311 285 336 309 293 297 297 312 321 326 326 333